Time,TemperatureF,DewpointF,PressureIn,WindDirection,WindDirectionDegrees,WindSpeedMPH,WindSpeedGustMPH,Humidity,HourlyPrecipIn,Conditions,Clouds,dailyrainin,SoftwareType,DateUTC
2013-04-06 00:00:00,43.2,25.3,29.95,WNW,295,5.0,15.0,49,0.00,,,0.03,meteohub,2013-04-06 04:00:00,
2013-04-06 00:05:00,43.0,26.1,29.95,NNW,330,6.0,14.0,51,0.00,,,0.00,meteohub,2013-04-06 04:05:00,
2013-04-06 00:10:00,42.6,25.7,29.96,NW,320,5.0,14.0,51,0.00,,,0.00,meteohub,2013-04-06 04:10:00,
2013-04-06 00:15:00,42.8,25.5,29.96,NNW,328,9.0,16.0,50,0.00,,,0.00,meteohub,2013-04-06 04:15:00,
2013-04-06 00:20:00,42.6,24.8,29.96,NNW,345,11.0,16.0,49,0.00,,,0.00,meteohub,2013-04-06 04:20:00,
2013-04-06 00:25:00,42.6,24.8,29.96,NNW,334,9.0,16.0,49,0.00,,,0.00,meteohub,2013-04-06 04:25:00,
2013-04-06 00:30:00,42.6,24.8,29.97,NNW,341,12.0,16.0,49,0.00,,,0.00,meteohub,2013-04-06 04:30:00,
2013-04-06 00:36:00,42.4,25.2,29.97,NNW,331,6.0,16.0,50,0.00,,,0.00,meteohub,2013-04-06 04:36:00,
2013-04-06 00:41:00,42.3,25.0,29.98,NNW,335,4.0,15.0,50,0.00,,,0.00,meteohub,2013-04-06 04:41:00,
2013-04-06 00:47:00,42.3,25.3,29.98,NNW,327,7.0,15.0,51,0.00,,,0.00,meteohub,2013-04-06 04:47:00,
2013-04-06 00:52:00,42.1,25.3,29.98,NW,320,5.0,15.0,51,0.00,,,0.00,meteohub,2013-04-06 04:52:00,
2013-04-06 00:57:00,41.7,25.3,29.98,NNW,330,4.0,13.0,52,0.00,,,0.00,meteohub,2013-04-06 04:57:00,
2013-04-06 01:02:00,41.5,25.7,29.98,NW,310,10.0,13.0,53,0.00,,,0.00,meteohub,2013-04-06 05:02:00,
2013-04-06 01:07:00,41.5,25.7,29.99,NNW,346,7.0,13.0,53,0.00,,,0.00,meteohub,2013-04-06 05:07:00,
2013-04-06 01:12:00,41.4,26.4,29.99,NNW,335,3.0,10.0,55,0.00,,,0.00,meteohub,2013-04-06 05:12:00,
2013-04-06 01:17:00,41.4,26.8,29.99,NW,321,12.0,12.0,56,0.00,,,0.00,meteohub,2013-04-06 05:17:00,
2013-04-06 01:22:00,41.2,27.1,29.99,NNW,345,6.0,13.0,57,0.00,,,0.00,meteohub,2013-04-06 05:22:00,
2013-04-06 01:27:00,41.2,26.6,29.99,NNW,336,6.0,13.0,56,0.00,,,0.00,meteohub,2013-04-06 05:27:00,
2013-04-06 01:32:00,41.0,27.0,30.00,NW,310,4.0,14.0,57,0.00,,,0.00,meteohub,2013-04-06 05:32:00,
2013-04-06 01:37:00,40.8,25.9,30.00,NW,326,4.0,14.0,55,0.00,,,0.00,meteohub,2013-04-06 05:37:00,
2013-04-06 01:42:00,40.6,26.2,30.00,NNW,333,4.0,12.0,56,0.00,,,0.00,meteohub,2013-04-06 05:42:00,
2013-04-06 01:47:00,40.6,26.2,30.00,NNW,343,6.0,12.0,56,0.00,,,0.00,meteohub,2013-04-06 05:47:00,
2013-04-06 01:52:00,40.5,26.1,30.00,NNW,343,9.0,12.0,56,0.00,,,0.00,meteohub,2013-04-06 05:52:00,
2013-04-06 01:57:00,40.5,25.5,30.01,NNW,329,6.0,12.0,55,0.00,,,0.00,meteohub,2013-04-06 05:57:00,
2013-04-06 02:02:00,40.3,25.3,30.01,NNW,332,3.0,12.0,55,0.00,,,0.00,meteohub,2013-04-06 06:02:00,
2013-04-06 02:07:00,40.3,25.9,30.01,North,349,7.0,12.0,56,0.00,,,0.00,meteohub,2013-04-06 06:07:00,
2013-04-06 02:12:00,39.9,25.5,30.01,NNW,332,6.0,11.0,56,0.00,,,0.00,meteohub,2013-04-06 06:12:00,
2013-04-06 02:17:00,39.9,25.0,30.02,NNW,330,6.0,13.0,55,0.00,,,0.00,meteohub,2013-04-06 06:17:00,
2013-04-06 02:22:00,39.9,25.5,30.02,NW,305,7.0,13.0,56,0.00,,,0.00,meteohub,2013-04-06 06:22:00,
2013-04-06 02:27:00,39.7,25.7,30.02,North,350,5.0,13.0,57,0.00,,,0.00,meteohub,2013-04-06 06:27:00,
2013-04-06 02:32:00,39.6,25.5,30.02,NNW,344,7.0,12.0,57,0.00,,,0.00,meteohub,2013-04-06 06:32:00,
2013-04-06 02:37:00,39.6,26.1,30.02,NW,322,4.0,12.0,58,0.00,,,0.00,meteohub,2013-04-06 06:37:00,
2013-04-06 02:42:00,39.6,25.5,30.03,NW,319,8.0,12.0,57,0.00,,,0.00,meteohub,2013-04-06 06:42:00,
2013-04-06 02:47:00,39.6,25.5,30.03,North,4,13.0,14.0,57,0.00,,,0.00,meteohub,2013-04-06 06:47:00,
2013-04-06 02:52:00,39.6,26.1,30.03,NW,312,4.0,14.0,58,0.00,,,0.00,meteohub,2013-04-06 06:52:00,
2013-04-06 02:57:00,39.4,25.0,30.03,NNW,328,7.0,14.0,56,0.00,,,0.00,meteohub,2013-04-06 06:57:00,
2013-04-06 03:02:00,39.4,25.3,30.03,NNW,347,7.0,14.0,57,0.00,,,0.00,meteohub,2013-04-06 07:02:00,
2013-04-06 03:07:00,39.2,24.8,30.04,NW,308,6.0,12.0,56,0.00,,,0.00,meteohub,2013-04-06 07:07:00,
2013-04-06 03:13:00,39.0,25.2,30.04,WNW,291,8.0,12.0,57,0.00,,,0.00,meteohub,2013-04-06 07:13:00,
2013-04-06 03:18:00,39.0,25.2,30.04,NNW,329,6.0,10.0,57,0.00,,,0.00,meteohub,2013-04-06 07:18:00,
2013-04-06 03:23:00,38.8,24.4,30.04,NNW,336,5.0,10.0,56,0.00,,,0.00,meteohub,2013-04-06 07:23:00,
2013-04-06 03:29:00,38.7,25.2,30.04,NNW,330,5.0,10.0,58,0.00,,,0.00,meteohub,2013-04-06 07:29:00,
2013-04-06 03:34:00,38.5,24.1,30.05,North,10,5.0,8.0,56,0.00,,,0.00,meteohub,2013-04-06 07:34:00,
2013-04-06 03:39:00,38.5,24.6,30.05,NNW,332,8.0,8.0,57,0.00,,,0.00,meteohub,2013-04-06 07:39:00,
2013-04-06 03:45:00,38.7,23.9,30.06,NW,325,7.0,12.0,55,0.00,,,0.00,meteohub,2013-04-06 07:45:00,
2013-04-06 03:50:00,38.7,23.9,30.06,NNW,340,4.0,12.0,55,0.00,,,0.00,meteohub,2013-04-06 07:50:00,
2013-04-06 03:55:00,38.5,23.7,30.06,NNW,341,7.0,12.0,55,0.00,,,0.00,meteohub,2013-04-06 07:55:00,
2013-04-06 04:00:00,38.5,24.1,30.06,North,350,4.0,12.0,56,0.00,,,0.00,meteohub,2013-04-06 08:00:00,
2013-04-06 04:05:00,38.5,23.7,30.07,NW,320,5.0,11.0,55,0.00,,,0.00,meteohub,2013-04-06 08:05:00,
2013-04-06 04:10:00,38.5,23.4,30.07,NNW,343,5.0,14.0,54,0.00,,,0.00,meteohub,2013-04-06 08:10:00,
2013-04-06 04:15:00,38.5,23.4,30.08,NW,316,6.0,14.0,54,0.00,,,0.00,meteohub,2013-04-06 08:15:00,
2013-04-06 04:20:00,38.5,22.8,30.08,NW,323,6.0,14.0,53,0.00,,,0.00,meteohub,2013-04-06 08:20:00,
2013-04-06 04:25:00,38.5,22.8,30.08,NNW,335,6.0,12.0,53,0.00,,,0.00,meteohub,2013-04-06 08:25:00,
2013-04-06 04:30:00,38.3,23.2,30.09,NW,324,6.0,14.0,54,0.00,,,0.00,meteohub,2013-04-06 08:30:00,
2013-04-06 04:35:00,38.1,23.0,30.09,NNW,341,6.0,14.0,54,0.00,,,0.00,meteohub,2013-04-06 08:35:00,
2013-04-06 04:40:00,38.1,23.0,30.09,NNW,328,7.0,14.0,54,0.00,,,0.00,meteohub,2013-04-06 08:40:00,
2013-04-06 04:45:00,38.1,22.5,30.09,NW,313,6.0,13.0,53,0.00,,,0.00,meteohub,2013-04-06 08:45:00,
2013-04-06 04:50:00,37.9,22.8,30.09,North,354,6.0,13.0,54,0.00,,,0.00,meteohub,2013-04-06 08:50:00,
2013-04-06 04:55:00,37.9,22.3,30.09,WNW,302,7.0,13.0,53,0.00,,,0.00,meteohub,2013-04-06 08:55:00,
2013-04-06 05:00:00,37.9,22.8,30.10,NNW,328,4.0,13.0,54,0.00,,,0.00,meteohub,2013-04-06 09:00:00,
2013-04-06 05:05:00,37.8,22.6,30.10,NNW,343,4.0,12.0,54,0.00,,,0.00,meteohub,2013-04-06 09:05:00,
2013-04-06 05:10:00,37.8,22.6,30.10,NE,43,4.0,12.0,54,0.00,,,0.00,meteohub,2013-04-06 09:10:00,
2013-04-06 05:15:00,37.8,22.6,30.10,NW,324,5.0,12.0,54,0.00,,,0.00,meteohub,2013-04-06 09:15:00,
2013-04-06 05:20:00,37.8,22.6,30.11,NW,311,6.0,12.0,54,0.00,,,0.00,meteohub,2013-04-06 09:20:00,
2013-04-06 05:25:00,37.6,22.5,30.11,NNW,328,4.0,10.0,54,0.00,,,0.00,meteohub,2013-04-06 09:25:00,
2013-04-06 05:30:00,37.6,22.5,30.12,NNW,330,5.0,10.0,54,0.00,,,0.00,meteohub,2013-04-06 09:30:00,
2013-04-06 05:35:00,37.6,22.5,30.12,NNW,335,7.0,12.0,54,0.00,,,0.00,meteohub,2013-04-06 09:35:00,
2013-04-06 05:40:00,37.6,22.8,30.12,NW,315,4.0,12.0,55,0.00,,,0.00,meteohub,2013-04-06 09:40:00,
2013-04-06 05:45:00,37.6,22.8,30.13,WNW,289,4.0,11.0,55,0.00,,,0.00,meteohub,2013-04-06 09:45:00,
2013-04-06 05:50:00,37.6,23.4,30.13,NE,54,7.0,14.0,56,0.00,,,0.00,meteohub,2013-04-06 09:50:00,
2013-04-06 05:55:00,37.8,23.9,30.13,North,4,5.0,14.0,57,0.00,,,0.00,meteohub,2013-04-06 09:55:00,
2013-04-06 06:00:00,37.8,23.9,30.14,NNW,346,8.0,15.0,57,0.00,,,0.00,meteohub,2013-04-06 10:00:00,
2013-04-06 06:05:00,37.4,22.6,30.14,NW,321,9.0,15.0,55,0.00,,,0.00,meteohub,2013-04-06 10:05:00,
2013-04-06 06:10:00,37.2,20.3,30.14,North,354,12.0,20.0,50,0.00,,,0.00,meteohub,2013-04-06 10:10:00,
2013-04-06 06:15:00,37.2,20.8,30.15,NW,318,13.0,20.0,51,0.00,,,0.00,meteohub,2013-04-06 10:15:00,
2013-04-06 06:21:00,37.0,20.1,30.15,WNW,301,13.0,21.0,50,0.00,,,0.00,meteohub,2013-04-06 10:21:00,
2013-04-06 06:26:00,37.0,20.7,30.16,NNE,19,10.0,25.0,51,0.00,,,0.00,meteohub,2013-04-06 10:26:00,
2013-04-06 06:31:00,37.0,20.1,30.16,NNW,331,11.0,25.0,50,0.00,,,0.00,meteohub,2013-04-06 10:31:00,
2013-04-06 06:36:00,36.9,19.4,30.17,NW,322,9.0,24.0,49,0.00,,,0.00,meteohub,2013-04-06 10:36:00,
2013-04-06 06:41:00,36.7,19.4,30.17,NNW,327,5.0,19.0,49,0.00,,,0.00,meteohub,2013-04-06 10:41:00,
2013-04-06 06:46:00,36.5,19.2,30.17,NW,325,8.0,19.0,49,0.00,,,0.00,meteohub,2013-04-06 10:46:00,
2013-04-06 06:51:00,36.5,19.2,30.17,NNW,332,5.0,18.0,49,0.00,,,0.00,meteohub,2013-04-06 10:51:00,
2013-04-06 06:56:00,36.5,18.7,30.18,NW,309,6.0,22.0,48,0.00,,,0.00,meteohub,2013-04-06 10:56:00,
2013-04-06 07:01:00,36.3,18.0,30.18,NW,315,10.0,22.0,47,0.00,,,0.00,meteohub,2013-04-06 11:01:00,
2013-04-06 07:07:00,36.3,18.0,30.18,North,4,9.0,22.0,47,0.00,,,0.00,meteohub,2013-04-06 11:07:00,
2013-04-06 07:12:00,36.3,18.0,30.19,NNW,334,10.0,19.0,47,0.00,,,0.00,meteohub,2013-04-06 11:12:00,
2013-04-06 07:17:00,36.3,18.0,30.19,NNW,345,10.0,15.0,47,0.00,,,0.00,meteohub,2013-04-06 11:17:00,
2013-04-06 07:22:00,36.3,18.5,30.19,NNW,335,9.0,15.0,48,0.00,,,0.00,meteohub,2013-04-06 11:22:00,
2013-04-06 07:27:00,36.5,19.2,30.20,WNW,291,6.0,15.0,49,0.00,,,0.00,meteohub,2013-04-06 11:27:00,
2013-04-06 07:32:00,36.7,18.9,30.20,WNW,293,11.0,15.0,48,0.00,,,0.00,meteohub,2013-04-06 11:32:00,
2013-04-06 07:33:00,36.7,18.9,30.20,NW,313,11.0,15.0,48,0.00,,,0.00,meteohub,2013-04-06 11:33:00,
2013-04-06 07:38:00,36.9,18.0,30.20,NW,320,9.0,17.0,46,0.00,,,0.00,meteohub,2013-04-06 11:38:00,
2013-04-06 07:43:00,36.9,18.0,30.20,North,359,10.0,17.0,46,0.00,,,0.00,meteohub,2013-04-06 11:43:00,
2013-04-06 07:48:00,36.9,17.4,30.21,WNW,299,8.0,18.0,45,0.00,,,0.00,meteohub,2013-04-06 11:48:00,
2013-04-06 07:53:00,36.9,16.5,30.22,NW,309,13.0,21.0,43,0.00,,,0.00,meteohub,2013-04-06 11:53:00,
2013-04-06 07:58:00,37.0,16.2,30.22,North,359,13.0,22.0,42,0.00,,,0.00,meteohub,2013-04-06 11:58:00,
2013-04-06 08:03:00,36.9,15.4,30.22,North,4,4.0,22.0,41,0.00,,,0.00,meteohub,2013-04-06 12:03:00,
2013-04-06 08:08:00,36.9,16.0,30.22,NW,309,12.0,22.0,42,0.00,,,0.00,meteohub,2013-04-06 12:08:00,
2013-04-06 08:13:00,36.9,15.4,30.23,NW,324,7.0,19.0,41,0.00,,,0.00,meteohub,2013-04-06 12:13:00,
2013-04-06 08:18:00,37.0,16.2,30.23,NW,322,5.0,19.0,42,0.00,,,0.00,meteohub,2013-04-06 12:18:00,
2013-04-06 08:23:00,37.2,16.7,30.23,WNW,303,8.0,19.0,43,0.00,,,0.00,meteohub,2013-04-06 12:23:00,
2013-04-06 08:28:00,37.2,16.7,30.23,NNW,339,4.0,16.0,43,0.00,,,0.00,meteohub,2013-04-06 12:28:00,
2013-04-06 08:33:00,37.6,17.1,30.24,NW,322,9.0,15.0,43,0.00,,,0.00,meteohub,2013-04-06 12:33:00,
2013-04-06 08:38:00,37.8,16.7,30.24,NNW,339,9.0,15.0,42,0.00,,,0.00,meteohub,2013-04-06 12:38:00,
2013-04-06 08:44:00,37.4,15.3,30.24,NE,35,8.0,15.0,40,0.00,,,0.00,meteohub,2013-04-06 12:44:00,
2013-04-06 08:49:00,37.2,15.6,30.24,WNW,291,11.0,16.0,41,0.00,,,0.00,meteohub,2013-04-06 12:49:00,
2013-04-06 08:54:00,37.2,15.1,30.25,North,359,9.0,20.0,40,0.00,,,0.00,meteohub,2013-04-06 12:54:00,
2013-04-06 08:59:00,37.0,11.8,30.25,NNW,328,14.0,20.0,35,0.00,,,0.00,meteohub,2013-04-06 12:59:00,
2013-04-06 09:04:00,36.9,11.8,30.25,NW,308,13.0,25.0,35,0.00,,,0.00,meteohub,2013-04-06 13:04:00,
2013-04-06 09:09:00,36.7,12.2,30.25,NW,316,9.0,25.0,36,0.00,,,0.00,meteohub,2013-04-06 13:09:00,
2013-04-06 09:14:00,37.2,13.3,30.25,NNW,348,4.0,25.0,37,0.00,,,0.00,meteohub,2013-04-06 13:14:00,
2013-04-06 09:19:00,37.6,13.1,30.25,NW,323,7.0,23.0,36,0.00,,,0.00,meteohub,2013-04-06 13:19:00,
2013-04-06 09:25:00,37.6,13.1,30.26,NW,326,12.0,22.0,36,0.00,,,0.00,meteohub,2013-04-06 13:25:00,
2013-04-06 09:30:00,37.6,13.1,30.25,NE,50,6.0,19.0,36,0.00,,,0.00,meteohub,2013-04-06 13:30:00,
2013-04-06 09:35:00,37.8,12.6,30.26,NW,310,8.0,19.0,35,0.00,,,0.00,meteohub,2013-04-06 13:35:00,
2013-04-06 09:40:00,37.9,14.5,30.26,NNW,335,11.0,15.0,38,0.00,,,0.00,meteohub,2013-04-06 13:40:00,
2013-04-06 09:45:00,37.8,13.8,30.26,NW,316,8.0,16.0,37,0.00,,,0.00,meteohub,2013-04-06 13:45:00,
2013-04-06 09:50:00,37.9,13.3,30.26,NNW,336,12.0,18.0,36,0.00,,,0.00,meteohub,2013-04-06 13:50:00,
2013-04-06 09:56:00,37.8,13.3,30.26,North,349,13.0,19.0,36,0.00,,,0.00,meteohub,2013-04-06 13:56:00,
2013-04-06 10:01:00,37.9,12.7,30.27,NNW,329,3.0,19.0,35,0.00,,,0.00,meteohub,2013-04-06 14:01:00,
2013-04-06 10:06:00,38.3,13.1,30.27,NNW,330,7.0,19.0,35,0.00,,,0.00,meteohub,2013-04-06 14:06:00,
2013-04-06 10:11:00,38.3,13.6,30.27,NW,321,11.0,18.0,36,0.00,,,0.00,meteohub,2013-04-06 14:11:00,
2013-04-06 10:16:00,38.1,12.9,30.27,North,4,5.0,19.0,35,0.00,,,0.00,meteohub,2013-04-06 14:16:00,
2013-04-06 10:21:00,38.5,12.6,30.27,NNW,330,11.0,19.0,34,0.00,,,0.00,meteohub,2013-04-06 14:21:00,
2013-04-06 10:26:00,38.5,13.3,30.27,North,4,7.0,18.0,35,0.00,,,0.00,meteohub,2013-04-06 14:26:00,
2013-04-06 10:31:00,38.7,13.3,30.28,NW,325,5.0,18.0,35,0.00,,,0.00,meteohub,2013-04-06 14:31:00,
2013-04-06 10:37:00,38.8,13.5,30.28,NW,324,4.0,17.0,35,0.00,,,0.00,meteohub,2013-04-06 14:37:00,
2013-04-06 10:42:00,39.0,13.6,30.28,North,10,9.0,17.0,35,0.00,,,0.00,meteohub,2013-04-06 14:42:00,
2013-04-06 10:47:00,39.0,13.1,30.28,NNE,12,3.0,17.0,34,0.00,,,0.00,meteohub,2013-04-06 14:47:00,
2013-04-06 10:52:00,38.8,12.2,30.28,NW,312,13.0,15.0,33,0.00,,,0.00,meteohub,2013-04-06 14:52:00,
2013-04-06 10:57:00,38.7,12.0,30.28,North,4,5.0,15.0,33,0.00,,,0.00,meteohub,2013-04-06 14:57:00,
2013-04-06 11:02:00,39.0,13.1,30.28,NNE,28,9.0,20.0,34,0.00,,,0.00,meteohub,2013-04-06 15:02:00,
2013-04-06 11:07:00,39.4,12.0,30.29,NNW,343,5.0,20.0,32,0.00,,,0.00,meteohub,2013-04-06 15:07:00,
2013-04-06 11:12:00,39.7,13.6,30.29,NW,312,17.0,17.0,34,0.00,,,0.00,meteohub,2013-04-06 15:12:00,
2013-04-06 11:17:00,39.0,11.7,30.29,North,4,6.0,17.0,32,0.00,,,0.00,meteohub,2013-04-06 15:17:00,
2013-04-06 11:22:00,39.6,12.2,30.29,NE,36,6.0,17.0,32,0.00,,,0.00,meteohub,2013-04-06 15:22:00,
2013-04-06 11:27:00,39.6,10.8,30.30,NNE,18,6.0,17.0,30,0.00,,,0.00,meteohub,2013-04-06 15:27:00,
2013-04-06 11:32:00,39.4,10.6,30.30,NW,324,10.0,15.0,30,0.00,,,0.00,meteohub,2013-04-06 15:32:00,
2013-04-06 11:37:00,39.0,11.7,30.29,WNW,291,8.0,18.0,32,0.00,,,0.00,meteohub,2013-04-06 15:37:00,
2013-04-06 11:42:00,39.6,12.2,30.29,NNW,333,6.0,18.0,32,0.00,,,0.00,meteohub,2013-04-06 15:42:00,
2013-04-06 11:47:00,39.7,10.8,30.30,NW,320,7.0,18.0,30,0.00,,,0.00,meteohub,2013-04-06 15:47:00,
2013-04-06 11:52:00,39.7,11.5,30.30,NNE,16,4.0,15.0,31,0.00,,,0.00,meteohub,2013-04-06 15:52:00,
2013-04-06 11:57:00,40.5,11.5,30.29,North,4,6.0,11.0,30,0.00,,,0.00,meteohub,2013-04-06 15:57:00,
2013-04-06 12:02:00,40.8,10.9,30.30,NNW,328,6.0,11.0,29,0.00,,,0.00,meteohub,2013-04-06 16:02:00,
2013-04-06 12:07:00,40.6,11.7,30.29,NW,318,4.0,14.0,30,0.00,,,0.00,meteohub,2013-04-06 16:07:00,
2013-04-06 12:13:00,40.8,11.8,30.30,NNW,330,4.0,14.0,30,0.00,,,0.00,meteohub,2013-04-06 16:13:00,
2013-04-06 12:18:00,40.8,10.9,30.29,North,350,13.0,14.0,29,0.00,,,0.00,meteohub,2013-04-06 16:18:00,
2013-04-06 12:23:00,41.2,10.6,30.30,NNW,347,6.0,15.0,28,0.00,,,0.00,meteohub,2013-04-06 16:23:00,
2013-04-06 12:28:00,41.2,9.7,30.30,WNW,290,4.0,15.0,27,0.00,,,0.00,meteohub,2013-04-06 16:28:00,
2013-04-06 12:33:00,41.0,11.1,30.30,NNW,332,15.0,15.0,29,0.00,,,0.00,meteohub,2013-04-06 16:33:00,
2013-04-06 12:38:00,40.6,10.0,30.30,WNW,291,9.0,15.0,28,0.00,,,0.00,meteohub,2013-04-06 16:38:00,
2013-04-06 12:43:00,41.0,9.5,30.30,NNW,328,6.0,15.0,27,0.00,,,0.00,meteohub,2013-04-06 16:43:00,
2013-04-06 12:48:00,41.7,11.8,30.29,North,10,4.0,15.0,29,0.00,,,0.00,meteohub,2013-04-06 16:48:00,
2013-04-06 12:53:00,42.3,12.2,30.29,NNW,339,7.0,13.0,29,0.00,,,0.00,meteohub,2013-04-06 16:53:00,
2013-04-06 12:58:00,42.3,11.5,30.29,North,354,8.0,11.0,28,0.00,,,0.00,meteohub,2013-04-06 16:58:00,
2013-04-06 13:03:00,42.4,11.7,30.29,North,4,7.0,12.0,28,0.00,,,0.00,meteohub,2013-04-06 17:03:00,
2013-04-06 13:08:00,42.4,12.4,30.29,NNE,27,5.0,14.0,29,0.00,,,0.00,meteohub,2013-04-06 17:08:00,
2013-04-06 13:13:00,42.6,11.8,30.29,NNW,343,8.0,14.0,28,0.00,,,0.00,meteohub,2013-04-06 17:13:00,
2013-04-06 13:19:00,42.4,10.0,30.29,North,354,7.0,14.0,26,0.00,,,0.00,meteohub,2013-04-06 17:19:00,
2013-04-06 13:24:00,42.1,8.8,30.29,WNW,295,10.0,19.0,25,0.00,,,0.00,meteohub,2013-04-06 17:24:00,
2013-04-06 13:29:00,42.1,10.6,30.29,NW,322,9.0,19.0,27,0.00,,,0.00,meteohub,2013-04-06 17:29:00,
2013-04-06 13:34:00,42.1,13.6,30.29,NNW,343,4.0,19.0,31,0.00,,,0.00,meteohub,2013-04-06 17:34:00,
2013-04-06 13:39:00,42.3,9.9,30.30,North,349,7.0,16.0,26,0.00,,,0.00,meteohub,2013-04-06 17:39:00,
2013-04-06 13:44:00,42.6,10.0,30.29,ENE,66,2.0,15.0,26,0.00,,,0.00,meteohub,2013-04-06 17:44:00,
2013-04-06 13:49:00,43.0,10.4,30.29,NW,319,9.0,15.0,26,0.00,,,0.00,meteohub,2013-04-06 17:49:00,
2013-04-06 13:54:00,42.6,9.3,30.29,NW,326,16.0,16.0,25,0.00,,,0.00,meteohub,2013-04-06 17:54:00,
2013-04-06 13:59:00,43.2,9.7,30.30,NW,326,5.0,12.0,25,0.00,,,0.00,meteohub,2013-04-06 17:59:00,
2013-04-06 14:04:00,43.3,8.1,30.30,NW,322,7.0,16.0,23,0.00,,,0.00,meteohub,2013-04-06 18:04:00,
2013-04-06 14:09:00,43.2,7.9,30.30,WNW,295,5.0,16.0,23,0.00,,,0.00,meteohub,2013-04-06 18:09:00,
2013-04-06 14:15:00,43.3,10.8,30.29,NW,317,9.0,15.0,26,0.00,,,0.00,meteohub,2013-04-06 18:15:00,
2013-04-06 14:20:00,43.5,8.2,30.29,NNW,330,11.0,15.0,23,0.00,,,0.00,meteohub,2013-04-06 18:20:00,
2013-04-06 14:25:00,43.7,10.2,30.29,NW,322,10.0,12.0,25,0.00,,,0.00,meteohub,2013-04-06 18:25:00,
2013-04-06 14:30:00,44.2,9.7,30.29,NW,311,5.0,16.0,24,0.00,,,0.00,meteohub,2013-04-06 18:30:00,
2013-04-06 14:35:00,44.2,10.6,30.29,WNW,286,7.0,16.0,25,0.00,,,0.00,meteohub,2013-04-06 18:35:00,
2013-04-06 14:40:00,45.1,9.5,30.29,North,349,10.0,16.0,23,0.00,,,0.00,meteohub,2013-04-06 18:40:00,
2013-04-06 14:45:00,45.1,9.5,30.29,West,279,3.0,12.0,23,0.00,,,0.00,meteohub,2013-04-06 18:45:00,
2013-04-06 14:50:00,45.0,9.3,30.29,WNW,299,6.0,14.0,23,0.00,,,0.00,meteohub,2013-04-06 18:50:00,
2013-04-06 14:55:00,44.6,9.1,30.28,NW,305,6.0,14.0,23,0.00,,,0.00,meteohub,2013-04-06 18:55:00,
2013-04-06 15:01:00,45.0,11.3,30.28,NW,312,4.0,14.0,25,0.00,,,0.00,meteohub,2013-04-06 19:01:00,
2013-04-06 15:06:00,45.5,9.9,30.28,North,354,6.0,11.0,23,0.00,,,0.00,meteohub,2013-04-06 19:06:00,
2013-04-06 15:11:00,45.7,10.9,30.28,NNW,335,9.0,11.0,24,0.00,,,0.00,meteohub,2013-04-06 19:11:00,
2013-04-06 15:16:00,45.3,9.7,30.28,NNW,337,10.0,16.0,23,0.00,,,0.00,meteohub,2013-04-06 19:16:00,
2013-04-06 15:21:00,45.5,9.9,30.28,NNW,343,7.0,16.0,23,0.00,,,0.00,meteohub,2013-04-06 19:21:00,
2013-04-06 15:26:00,46.0,10.2,30.28,NW,313,4.0,16.0,23,0.00,,,0.00,meteohub,2013-04-06 19:26:00,
2013-04-06 15:31:00,46.4,9.7,30.28,North,349,8.0,14.0,22,0.00,,,0.00,meteohub,2013-04-06 19:31:00,
2013-04-06 15:36:00,46.0,9.3,30.28,NW,315,8.0,15.0,22,0.00,,,0.00,meteohub,2013-04-06 19:36:00,
2013-04-06 15:41:00,46.2,8.4,30.28,NNW,333,2.0,15.0,21,0.00,,,0.00,meteohub,2013-04-06 19:41:00,
2013-04-06 15:46:00,46.2,8.4,30.28,NW,314,5.0,14.0,21,0.00,,,0.00,meteohub,2013-04-06 19:46:00,
2013-04-06 15:52:00,46.0,8.2,30.27,West,277,1.0,12.0,21,0.00,,,0.00,meteohub,2013-04-06 19:52:00,
2013-04-06 15:57:00,46.6,9.7,30.28,WSW,239,3.0,10.0,22,0.00,,,0.00,meteohub,2013-04-06 19:57:00,
2013-04-06 16:02:00,46.8,19.2,30.28,NW,310,3.0,8.0,33,0.00,,,0.00,meteohub,2013-04-06 20:02:00,
2013-04-06 16:07:00,46.0,18.5,30.28,NE,39,0.0,8.0,33,0.00,,,0.00,meteohub,2013-04-06 20:07:00,
2013-04-06 16:12:00,45.5,18.1,30.28,SSE,168,2.0,8.0,33,0.00,,,0.00,meteohub,2013-04-06 20:12:00,
2013-04-06 16:17:00,45.7,19.6,30.28,SE,129,4.0,9.0,35,0.00,,,0.00,meteohub,2013-04-06 20:17:00,
2013-04-06 16:22:00,45.1,22.3,30.28,West,268,3.0,13.0,40,0.00,,,0.00,meteohub,2013-04-06 20:22:00,
2013-04-06 16:27:00,45.3,21.7,30.28,SW,220,1.0,13.0,39,0.00,,,0.00,meteohub,2013-04-06 20:27:00,
2013-04-06 16:32:00,45.7,21.6,30.28,SE,144,4.0,13.0,38,0.00,,,0.00,meteohub,2013-04-06 20:32:00,
2013-04-06 16:37:00,45.5,21.4,30.29,SSW,205,4.0,8.0,38,0.00,,,0.00,meteohub,2013-04-06 20:37:00,
2013-04-06 16:42:00,45.3,22.5,30.29,SSW,193,2.0,8.0,40,0.00,,,0.00,meteohub,2013-04-06 20:42:00,
2013-04-06 16:47:00,45.3,23.0,30.29,East,100,2.0,10.0,41,0.00,,,0.00,meteohub,2013-04-06 20:47:00,
2013-04-06 16:52:00,45.1,22.3,30.30,SSW,204,7.0,10.0,40,0.00,,,0.00,meteohub,2013-04-06 20:52:00,
2013-04-06 16:57:00,44.8,23.0,30.30,ESE,122,4.0,10.0,42,0.00,,,0.00,meteohub,2013-04-06 20:57:00,
2013-04-06 17:02:00,44.2,22.1,30.30,NNW,347,3.0,11.0,41,0.00,,,0.00,meteohub,2013-04-06 21:02:00,
2013-04-06 17:07:00,43.9,22.8,30.30,NNE,12,3.0,14.0,43,0.00,,,0.00,meteohub,2013-04-06 21:07:00,
2013-04-06 17:12:00,43.5,23.5,30.31,SE,137,3.0,14.0,45,0.00,,,0.00,meteohub,2013-04-06 21:12:00,
2013-04-06 17:17:00,43.3,24.4,30.31,East,83,9.0,13.0,47,0.00,,,0.00,meteohub,2013-04-06 21:17:00,
2013-04-06 17:22:00,43.3,24.4,30.31,North,4,2.0,11.0,47,0.00,,,0.00,meteohub,2013-04-06 21:22:00,
2013-04-06 17:27:00,43.5,24.1,30.32,WSW,251,4.0,13.0,46,0.00,,,0.00,meteohub,2013-04-06 21:27:00,
2013-04-06 17:32:00,43.3,22.3,30.32,West,275,3.0,16.0,43,0.00,,,0.00,meteohub,2013-04-06 21:32:00,
2013-04-06 17:37:00,43.2,23.2,30.32,SSW,199,3.0,16.0,45,0.00,,,0.00,meteohub,2013-04-06 21:37:00,
2013-04-06 17:42:00,43.0,22.6,30.32,West,264,4.0,16.0,44,0.00,,,0.00,meteohub,2013-04-06 21:42:00,
2013-04-06 17:47:00,43.0,23.5,30.32,WNW,286,7.0,14.0,46,0.00,,,0.00,meteohub,2013-04-06 21:47:00,
2013-04-06 17:52:00,42.8,24.4,30.32,SSW,213,7.0,13.0,48,0.00,,,0.00,meteohub,2013-04-06 21:52:00,
2013-04-06 17:58:00,43.0,24.1,30.32,West,262,8.0,13.0,47,0.00,,,0.00,meteohub,2013-04-06 21:58:00,
2013-04-06 18:03:00,42.6,24.3,30.32,WNW,303,7.0,13.0,48,0.00,,,0.00,meteohub,2013-04-06 22:03:00,
2013-04-06 18:08:00,42.4,25.2,30.32,WNW,283,5.0,10.0,50,0.00,,,0.00,meteohub,2013-04-06 22:08:00,
2013-04-06 18:13:00,42.1,24.3,30.32,West,266,3.0,10.0,49,0.00,,,0.00,meteohub,2013-04-06 22:13:00,
2013-04-06 18:18:00,42.1,24.3,30.32,West,266,3.0,12.0,49,0.00,,,0.00,meteohub,2013-04-06 22:18:00,
2013-04-06 18:23:00,42.1,24.3,30.32,NE,41,1.0,12.0,49,0.00,,,0.00,meteohub,2013-04-06 22:23:00,
2013-04-06 18:28:00,42.1,24.3,30.33,ENE,58,3.0,12.0,49,0.00,,,0.00,meteohub,2013-04-06 22:28:00,
2013-04-06 18:33:00,42.1,22.8,30.33,WSW,245,3.0,12.0,46,0.00,,,0.00,meteohub,2013-04-06 22:33:00,
2013-04-06 18:38:00,42.1,24.8,30.33,South,185,1.0,10.0,50,0.00,,,0.00,meteohub,2013-04-06 22:38:00,
2013-04-06 18:43:00,42.1,25.3,30.33,NNE,29,2.0,10.0,51,0.00,,,0.00,meteohub,2013-04-06 22:43:00,
2013-04-06 18:48:00,41.9,24.6,30.33,SW,228,3.0,10.0,50,0.00,,,0.00,meteohub,2013-04-06 22:48:00,
2013-04-06 18:53:00,41.7,25.3,30.33,WSW,254,1.0,7.0,52,0.00,,,0.00,meteohub,2013-04-06 22:53:00,
2013-04-06 18:58:00,41.7,25.9,30.34,West,266,4.0,7.0,53,0.00,,,0.00,meteohub,2013-04-06 22:58:00,
2013-04-06 19:03:00,41.5,26.6,30.33,NNW,337,1.0,7.0,55,0.00,,,0.00,meteohub,2013-04-06 23:03:00,
2013-04-06 19:08:00,41.4,25.9,30.33,NW,311,2.0,8.0,54,0.00,,,0.00,meteohub,2013-04-06 23:08:00,
2013-04-06 19:13:00,41.4,25.5,30.33,South,191,3.0,8.0,53,0.00,,,0.00,meteohub,2013-04-06 23:13:00,
2013-04-06 19:18:00,41.2,26.2,30.33,SSW,210,0.0,5.0,55,0.00,,,0.00,meteohub,2013-04-06 23:18:00,
2013-04-06 19:23:00,41.0,26.4,30.33,SW,218,0.0,5.0,56,0.00,,,0.00,meteohub,2013-04-06 23:23:00,
2013-04-06 19:28:00,40.6,27.5,30.34,SSE,152,2.0,4.0,59,0.00,,,0.00,meteohub,2013-04-06 23:28:00,
2013-04-06 19:33:00,40.5,26.8,30.34,SSE,152,0.0,4.0,58,0.00,,,0.00,meteohub,2013-04-06 23:33:00,
2013-04-06 19:38:00,40.3,27.9,30.34,West,260,2.0,4.0,61,0.00,,,0.00,meteohub,2013-04-06 23:38:00,
2013-04-06 19:43:00,39.9,27.5,30.34,SW,214,0.0,3.0,61,0.00,,,0.00,meteohub,2013-04-06 23:43:00,
2013-04-06 19:49:00,39.9,28.0,30.34,SSW,203,0.0,4.0,62,0.00,,,0.00,meteohub,2013-04-06 23:49:00,
2013-04-06 19:54:00,39.7,27.9,30.34,SSW,199,0.0,4.0,62,0.00,,,0.00,meteohub,2013-04-06 23:54:00,
2013-04-06 19:59:00,39.7,27.9,30.34,SW,226,0.0,4.0,62,0.00,,,0.00,meteohub,2013-04-06 23:59:00,
2013-04-06 20:04:00,39.7,27.9,30.34,SW,226,0.0,3.0,62,0.00,,,0.00,meteohub,2013-04-07 00:04:00,
2013-04-06 20:09:00,39.6,27.7,30.34,SW,230,0.0,3.0,62,0.00,,,0.00,meteohub,2013-04-07 00:09:00,
2013-04-06 20:14:00,39.4,27.5,30.34,NNW,335,2.0,2.0,62,0.00,,,0.00,meteohub,2013-04-07 00:14:00,
2013-04-06 20:19:00,39.0,27.5,30.34,NNW,335,0.0,2.0,63,0.00,,,0.00,meteohub,2013-04-07 00:19:00,
2013-04-06 20:24:00,38.7,27.5,30.35,NNW,335,0.0,3.0,64,0.00,,,0.00,meteohub,2013-04-07 00:24:00,
2013-04-06 20:29:00,38.5,28.4,30.35,NNW,335,0.0,3.0,67,0.00,,,0.00,meteohub,2013-04-07 00:29:00,
2013-04-06 20:35:00,38.1,27.9,30.35,NNW,335,0.0,2.0,66,0.00,,,0.00,meteohub,2013-04-07 00:35:00,
2013-04-06 20:40:00,37.9,27.7,30.35,NNW,335,0.0,2.0,66,0.00,,,0.00,meteohub,2013-04-07 00:40:00,
2013-04-06 20:45:00,37.8,28.2,30.35,NNW,335,0.0,2.0,68,0.00,,,0.00,meteohub,2013-04-07 00:45:00,
2013-04-06 20:50:00,37.6,28.0,30.35,NNW,335,0.0,2.0,68,0.00,,,0.00,meteohub,2013-04-07 00:50:00,
2013-04-06 20:55:00,37.2,28.0,30.35,NNW,335,0.0,1.0,69,0.00,,,0.00,meteohub,2013-04-07 00:55:00,
2013-04-06 21:00:00,37.0,28.2,30.35,NNW,335,0.0,2.0,70,0.00,,,0.00,meteohub,2013-04-07 01:00:00,
2013-04-06 21:05:00,36.9,28.8,30.35,NNW,335,0.0,2.0,72,0.00,,,0.00,meteohub,2013-04-07 01:05:00,
2013-04-06 21:10:00,36.9,28.9,30.36,NNW,335,0.0,1.0,73,0.00,,,0.00,meteohub,2013-04-07 01:10:00,
2013-04-06 21:15:00,36.9,29.3,30.36,NNW,335,0.0,1.0,74,0.00,,,0.00,meteohub,2013-04-07 01:15:00,
2013-04-06 21:20:00,36.9,29.7,30.36,NNW,335,0.0,1.0,75,0.00,,,0.00,meteohub,2013-04-07 01:20:00,
2013-04-06 21:25:00,36.7,28.8,30.36,NNW,335,1.0,1.0,73,0.00,,,0.00,meteohub,2013-04-07 01:25:00,
2013-04-06 21:30:00,36.1,28.9,30.36,NNW,335,2.0,2.0,75,0.00,,,0.00,meteohub,2013-04-07 01:30:00,
2013-04-06 21:35:00,35.8,28.4,30.35,NNW,335,1.0,3.0,74,0.00,,,0.00,meteohub,2013-04-07 01:35:00,
2013-04-06 21:40:00,35.6,28.8,30.36,NNW,335,0.0,3.0,76,0.00,,,0.00,meteohub,2013-04-07 01:40:00,
2013-04-06 21:45:00,35.4,28.9,30.36,NNW,335,0.0,3.0,77,0.00,,,0.00,meteohub,2013-04-07 01:45:00,
2013-04-06 21:50:00,35.4,29.3,30.36,NNW,335,0.0,2.0,78,0.00,,,0.00,meteohub,2013-04-07 01:50:00,
2013-04-06 21:55:00,35.2,29.3,30.36,NNW,335,1.0,0.0,79,0.00,,,0.00,meteohub,2013-04-07 01:55:00,
2013-04-06 22:00:00,35.1,28.6,30.36,NNW,335,0.0,2.0,77,0.00,,,0.00,meteohub,2013-04-07 02:00:00,
2013-04-06 22:05:00,34.7,28.2,30.36,NNW,335,0.0,2.0,77,0.00,,,0.00,meteohub,2013-04-07 02:05:00,
2013-04-06 22:10:00,34.5,28.8,30.36,NNW,335,0.0,2.0,79,0.00,,,0.00,meteohub,2013-04-07 02:10:00,
2013-04-06 22:15:00,34.5,28.9,30.35,NNW,335,0.0,1.0,80,0.00,,,0.00,meteohub,2013-04-07 02:15:00,
2013-04-06 22:20:00,34.3,28.8,30.35,NNW,335,0.0,0.0,80,0.00,,,0.00,meteohub,2013-04-07 02:20:00,
2013-04-06 22:25:00,34.2,28.6,30.35,NNW,335,0.0,0.0,80,0.00,,,0.00,meteohub,2013-04-07 02:25:00,
2013-04-06 22:30:00,34.0,28.4,30.34,NNW,335,2.0,2.0,80,0.00,,,0.00,meteohub,2013-04-07 02:30:00,
2013-04-06 22:35:00,34.0,28.8,30.34,NNW,335,0.0,2.0,81,0.00,,,0.00,meteohub,2013-04-07 02:35:00,
2013-04-06 22:40:00,33.6,28.0,30.34,NNW,335,0.0,2.0,80,0.00,,,0.00,meteohub,2013-04-07 02:40:00,
2013-04-06 22:45:00,33.4,27.9,30.34,NNW,335,1.0,2.0,80,0.00,,,0.00,meteohub,2013-04-07 02:45:00,
2013-04-06 22:50:00,33.3,28.0,30.35,NNW,335,0.0,2.0,81,0.00,,,0.00,meteohub,2013-04-07 02:50:00,
2013-04-06 22:55:00,33.1,28.2,30.35,NNW,335,1.0,2.0,82,0.00,,,0.00,meteohub,2013-04-07 02:55:00,
2013-04-06 23:00:00,32.7,27.9,30.35,NNW,335,0.0,2.0,82,0.00,,,0.00,meteohub,2013-04-07 03:00:00,
2013-04-06 23:06:00,32.5,28.0,30.35,NNW,335,1.0,2.0,83,0.00,,,0.00,meteohub,2013-04-07 03:06:00,
2013-04-06 23:11:00,32.4,27.5,30.35,NNW,335,0.0,2.0,82,0.00,,,0.00,meteohub,2013-04-07 03:11:00,
2013-04-06 23:16:00,32.0,27.5,30.35,NNW,335,0.0,2.0,83,0.00,,,0.00,meteohub,2013-04-07 03:16:00,
2013-04-06 23:21:00,31.6,26.8,30.35,NNW,335,1.0,2.0,82,0.00,,,0.00,meteohub,2013-04-07 03:21:00,
2013-04-06 23:26:00,31.5,27.0,30.34,NNW,335,1.0,3.0,83,0.00,,,0.00,meteohub,2013-04-07 03:26:00,
2013-04-06 23:31:00,31.3,26.4,30.35,NNW,335,0.0,3.0,82,0.00,,,0.00,meteohub,2013-04-07 03:31:00,
2013-04-06 23:36:00,31.1,26.8,30.35,NNW,335,0.0,3.0,84,0.00,,,0.00,meteohub,2013-04-07 03:36:00,
2013-04-06 23:42:00,31.3,27.3,30.35,NNW,335,0.0,2.0,85,0.00,,,0.00,meteohub,2013-04-07 03:42:00,
2013-04-06 23:47:00,30.9,26.6,30.35,NNW,335,2.0,2.0,84,0.00,,,0.00,meteohub,2013-04-07 03:47:00,
2013-04-06 23:52:00,30.7,26.4,30.35,NNW,335,1.0,3.0,84,0.00,,,0.00,meteohub,2013-04-07 03:52:00,
2013-04-06 23:57:00,30.6,26.2,30.35,NNW,335,1.0,3.0,84,0.00,,,0.00,meteohub,2013-04-07 03:57:00,